FW3071 Weather Reports


time (UTC)temp
F
wind
direction
speed
knots
gust
knots
rain 1hr
in
rain 24hr
in
rain mn
in
humidity
%
barometer
mb
20260507015021 79 88 6.1 10.4 0.00 0.00 0.00 91 1009.4
20260507014549 79 119 5.2 10.4 0.00 0.00 0.00 91 1009.2
20260507014021 79 89 6.1 10.4 0.00 0.00 0.00 91 1009.1
20260507013521 79 67 6.1 10.4 0.00 0.00 0.00 90 1009.1
20260507013049 79 85 6.1 10.4 0.00 0.00 0.00 90 1009.0
20260507012520 79 69 5.2 10.4 0.00 0.00 0.00 90 1009.0
20260507012019 79 88 3.5 7.8 0.00 0.00 0.00 90 1008.8
20260507011539 79 72 3.5 8.7 0.00 0.00 0.00 89 1008.8
20260507011019 79 68 2.6 8.7 0.00 0.00 0.00 89 1008.9
20260507010520 80 63 3.5 7.8 0.00 0.00 0.00 89 1008.8
20260507010046 80 62 2.6 8.7 0.00 0.00 0.00 89 1008.8
20260507005520 80 76 4.3 9.6 0.00 0.00 0.00 89 1008.8
20260507005019 80 76 5.2 9.6 0.00 0.00 0.00 88 1008.6
20260507004535 80 71 6.1 12.2 0.00 0.00 0.00 88 1008.5
20260507004019 80 101 7.0 12.2 0.00 0.00 0.00 88 1008.4
20260507003520 80 80 7.0 12.2 0.00 0.00 0.00 87 1008.3
20260507003036 81 109 6.1 12.2 0.00 0.00 0.00 87 1008.2
20260507002519 81 56 6.1 12.2 0.00 0.00 0.00 87 1008.2
20260507002020 81 87 8.7 13.0 0.00 0.00 0.00 86 1008.1
20260507001535 81 105 7.8 13.0 0.00 0.00 0.00 86 1008.0
20260507001019 82 107 7.8 13.0 0.00 0.00 0.00 85 1008.0
20260507000520 82 86 7.0 11.3 0.00 0.00 0.00 85 1008.0
20260507000036 82 78 6.1 12.2 0.00 0.00 0.00 85 1007.9
20260506235521 82 78 7.0 12.2 0.00 0.00 0.00 85 1007.9
20260506235019 82 74 7.8 12.2 0.00 0.00 0.00 84 1007.8
20260506234538 83 68 7.8 12.2 0.00 0.00 0.00 84 1007.8
20260506234021 83 90 7.0 12.2 0.00 0.00 0.00 84 1007.8
20260506233518 83 73 6.1 11.3 0.00 0.00 0.00 84 1007.9
20260506233053 83 97 7.0 11.3 0.00 0.00 0.00 84 1007.9
20260506232521 83 91 7.0 11.3 0.00 0.00 0.00 83 1007.9
20260506232018 83 67 7.0 12.2 0.00 0.00 0.00 83 1007.7
20260506231542 84 78 7.0 12.2 0.00 0.00 0.00 83 1007.6
20260506231022 84 97 7.8 12.2 0.00 0.00 0.00 83 1007.7
20260506230520 84 61 7.0 11.3 0.00 0.00 0.00 83 1007.7
20260506230040 84 91 6.1 10.4 0.00 0.00 0.00 83 1007.7
20260506225521 84 85 7.0 10.4 0.00 0.00 0.00 83 1007.7
20260506225020 84 75 6.1 11.3 0.00 0.00 0.00 83 1007.7
20260506224539 83 105 7.0 11.3 0.00 0.00 0.00 83 1007.7
20260506224021 83 109 7.0 11.3 0.00 0.00 0.00 83 1007.6
20260506223519 84 93 7.8 11.3 0.00 0.00 0.00 83 1007.7
20260506223036 84 100 7.0 11.3 0.00 0.00 0.00 82 1007.6
20260506222521 84 111 7.0 10.4 0.00 0.00 0.00 82 1007.6
20260506222023 84 75 6.1 10.4 0.00 0.00 0.00 81 1007.6
20260506221536 85 94 5.2 12.2 0.00 0.00 0.00 81 1007.6
20260506221019 85 105 7.0 12.2 0.00 0.00 0.00 80 1007.6
20260506220520 85 109 6.1 10.4 0.00 0.00 0.00 80 1007.7
20260506220043 86 107 5.2 11.3 0.00 0.00 0.00 79 1007.7
20260506215517 86 98 7.0 11.3 0.00 0.00 0.00 79 1007.7
20260506215020 87 99 6.1 11.3 0.00 0.00 0.00 77 1007.8
20260506214535 87 81 6.1 11.3 0.00 0.00 0.00 77 1007.7
20260506214020 88 94 7.0 12.2 0.00 0.00 0.00 77 1007.6
20260506213519 88 114 6.1 12.2 0.00 0.00 0.00 77 1007.6
20260506213040 88 92 6.1 12.2 0.00 0.00 0.00 76 1007.6
20260506212521 89 67 7.0 12.2 0.00 0.00 0.00 76 1007.6
20260506212020 89 81 7.8 12.2 0.00 0.00 0.00 74 1007.5
20260506211536 89 132 5.2 12.2 0.00 0.00 0.00 75 1007.5
20260506211021 90 101 7.0 12.2 0.00 0.00 0.00 74 1007.5
20260506210526 90 81 7.0 11.3 0.00 0.00 0.00 74 1007.6
20260506210037 90 99 7.8 11.3 0.00 0.00 0.00 75 1007.6
20260506205519 89 101 7.0 11.3 0.00 0.00 0.00 74 1007.6
20260506205024 89 118 8.7 11.3 0.00 0.00 0.00 75 1007.6
20260506204536 89 124 6.1 11.3 0.00 0.00 0.00 77 1007.6
20260506204022 89 128 7.0 11.3 0.00 0.00 0.00 76 1007.7
20260506203520 88 115 7.8 11.3 0.00 0.00 0.00 76 1007.8
20260506203042 88 101 7.0 11.3 0.00 0.00 0.00 77 1007.8
20260506202520 88 101 7.8 11.3 0.00 0.00 0.00 77 1007.9
20260506202020 88 114 7.8 12.2 0.00 0.00 0.00 77 1008.1
20260506201540 88 140 7.0 12.2 0.00 0.00 0.00 78 1008.2
20260506201022 88 134 7.0 12.2 0.00 0.00 0.00 78 1008.3
20260506200521 87 98 7.8 12.2 0.00 0.00 0.00 79 1008.3
20260506200044 87 152 7.8 12.2 0.00 0.00 0.00 78 1008.4
20260506195520 87 107 7.8 13.9 0.00 0.00 0.00 78 1008.5
20260506195019 87 141 7.8 13.9 0.00 0.00 0.00 78 1008.5
20260506194544 87 120 8.7 13.9 0.00 0.00 0.00 79 1008.5
20260506194018 86 123 7.8 13.0 0.00 0.00 0.00 80 1008.5
20260506193518 86 85 8.7 13.0 0.00 0.00 0.00 79 1008.7
20260506193034 86 132 8.7 13.0 0.00 0.00 0.00 80 1008.6
20260506192521 86 100 7.0 13.0 0.00 0.00 0.00 81 1008.8
20260506192020 85 109 7.8 13.0 0.00 0.00 0.00 82 1008.8
20260506191535 84 117 7.8 12.2 0.00 0.00 0.00 83 1008.9
20260506191021 84 109 7.0 12.2 0.00 0.00 0.00 83 1009.0
20260506190518 84 103 7.8 12.2 0.00 0.00 0.00 83 1009.1
20260506190040 83 124 7.0 12.2 0.00 0.00 0.00 84 1009.0
20260506185520 83 107 7.8 13.9 0.00 0.00 0.00 83 1009.1
20260506185032 83 121 7.8 13.9 0.00 0.00 0.00 83 1009.1
20260506184539 83 115 8.7 13.9 0.00 0.00 0.00 83 1009.1
20260506184021 83 142 7.8 11.3 0.00 0.00 0.00 83 1009.1
20260506183520 83 92 7.8 12.2 0.00 0.00 0.00 84 1009.1
20260506183037 83 128 8.7 13.0 0.00 0.00 0.00 83 1009.1
20260506182519 83 145 7.8 13.0 0.00 0.00 0.00 83 1009.2
20260506182021 84 116 7.8 11.3 0.00 0.00 0.00 82 1009.3
20260506181535 84 121 7.8 12.2 0.00 0.00 0.00 82 1009.3
20260506181023 84 134 7.8 13.9 0.00 0.00 0.00 82 1009.3
20260506180520 84 129 8.7 13.9 0.00 0.00 0.00 81 1009.4
20260506180040 85 121 7.0 13.0 0.00 0.00 0.00 80 1009.3
20260506175520 86 133 7.0 13.0 0.00 0.00 0.00 79 1009.3
20260506175021 86 161 6.1 10.4 0.00 0.00 0.00 78 1009.2
20260506174541 87 141 6.1 9.6 0.00 0.00 0.00 78 1009.2
20260506174021 87 137 5.2 10.4 0.00 0.00 0.00 77 1009.1
20260506173521 87 126 6.1 10.4 0.00 0.00 0.00 77 1009.1
20260506173045 88 136 6.1 9.6 0.00 0.00 0.00 78 1009.0
20260506172520 87 93 5.2 9.6 0.00 0.00 0.00 78 1009.0
20260506172021 87 155 4.3 10.4 0.00 0.00 0.00 80 1009.1
20260506171547 86 159 5.2 10.4 0.00 0.00 0.00 81 1009.1
20260506171026 85 158 6.1 13.9 0.00 0.00 0.00 83 1009.0
20260506170521 85 167 8.7 13.9 0.00 0.00 0.00 84 1009.1
20260506170044 83 132 8.7 13.0 0.00 0.00 0.00 86 1009.0
20260506165521 82 126 7.0 13.0 0.00 0.00 0.00 89 1009.1
20260506165023 81 155 6.1 9.6 0.00 0.00 0.00 90 1009.1
20260506164545 80 151 4.3 10.4 0.00 0.00 0.00 91 1009.2
20260506164022 80 161 5.2 13.9 0.00 0.00 0.00 91 1009.2
20260506163521 79 169 7.0 15.6 0.00 0.00 0.00 92 1009.2
20260506163043 79 179 7.8 15.6 0.00 0.00 0.00 92 1009.1
20260506162520 79 166 8.7 15.6 0.00 0.00 0.00 92 1009.1
20260506162022 79 155 8.7 14.8 0.00 0.00 0.00 93 1009.1
20260506161542 78 157 9.6 14.8 0.00 0.00 0.00 93 1009.1
20260506161022 78 150 7.8 13.0 0.00 0.00 0.00 93 1009.0
20260506160522 78 167 6.1 13.0 0.00 0.00 0.00 93 1009.0
20260506160047 78 159 7.8 12.2 0.00 0.00 0.00 93 1008.9
20260506155522 78 137 7.0 13.9 0.00 0.00 0.00 93 1008.9
20260506155022 78 159 9.6 13.9 0.00 0.00 0.00 93 1008.7
20260506154550 78 153 7.8 13.9 0.00 0.00 0.00 93 1008.6
20260506154018 78 148 8.7 13.9 0.00 0.00 0.00 93 1008.5
20260506153520 78 153 7.8 15.6 0.00 0.00 0.00 93 1008.6
20260506153036 78 144 8.7 16.5 0.00 0.00 0.00 93 1008.5
20260506152518 78 159 9.6 16.5 0.00 0.00 0.00 93 1008.5
20260506152019 78 157 8.7 13.9 0.00 0.00 0.00 93 1008.5
20260506151536 78 149 7.8 13.9 0.00 0.00 0.00 93 1008.5
20260506151018 78 154 8.7 13.9 0.00 0.00 0.00 93 1008.5
20260506150521 78 152 8.7 13.9 0.00 0.00 0.00 92 1008.5
20260506150036 78 160 7.8 14.8 0.00 0.00 0.00 92 1008.5
20260506145523 78 155 9.6 15.6 0.00 0.00 0.00 92 1008.5
20260506145018 79 158 11.3 15.6 0.00 0.00 0.00 92 1008.4
20260506144543 79 168 7.8 13.9 0.00 0.00 0.00 92 1008.5
20260506144021 79 115 7.0 13.9 0.00 0.00 0.00 92 1008.4
20260506143520 79 167 8.7 14.8 0.00 0.00 0.00 91 1008.4
20260506143039 79 146 8.7 14.8 0.00 0.00 0.00 91 1008.5
20260506142518 79 147 9.6 14.8 0.00 0.00 0.00 91 1008.5
20260506142017 79 156 9.6 13.9 0.00 0.00 0.00 91 1008.4
20260506141542 79 173 7.0 13.0 0.00 0.00 0.00 91 1008.5
20260506141020 79 162 8.7 14.8 0.00 0.00 0.00 91 1008.5
20260506140519 79 155 9.6 14.8 0.00 0.00 0.00 91 1008.3
20260506140035 78 137 9.6 14.8 0.00 0.00 0.00 91 1008.3
20260506135517 79 127 7.8 14.8 0.00 0.00 0.00 91 1008.3
20260506135019 79 136 9.6 15.6 0.00 0.00 0.00 91 1008.3
20260506134542 79 155 8.7 15.6 0.00 0.00 0.00 91 1008.2
20260506134020 79 130 10.4 14.8 0.00 0.00 0.00 91 1008.1
20260506133520 79 130 10.4 15.6 0.00 0.00 0.00 91 1008.1
20260506133040 79 128 7.8 16.5 0.00 0.00 0.00 91 1008.2
20260506132519 78 163 9.6 16.5 0.00 0.00 0.00 92 1008.2
20260506132020 78 123 9.6 14.8 0.00 0.00 0.00 92 1008.2
20260506131540 78 123 8.7 13.9 0.00 0.00 0.00 92 1008.3
20260506131021 78 124 7.0 10.4 0.00 0.00 0.00 92 1008.2
20260506130523 78 150 6.1 10.4 0.00 0.00 0.00 92 1008.1
20260506130039 78 130 5.2 11.3 0.00 0.00 0.00 92 1008.1
20260506125519 78 139 7.0 12.2 0.00 0.00 0.00 92 1008.0
20260506125022 78 132 7.0 12.2 0.00 0.00 0.00 92 1008.0
20260506124538 78 128 6.1 13.0 0.00 0.00 0.00 92 1008.0
20260506124020 78 130 7.8 13.0 0.00 0.00 0.00 92 1007.9
20260506123520 78 144 7.0 12.2 0.00 0.00 0.00 92 1007.8
20260506123040 78 136 6.1 9.6 0.00 0.00 0.00 92 1007.8
20260506122519 78 157 5.2 9.6 0.00 0.00 0.00 92 1007.7
20260506122019 78 132 6.1 9.6 0.00 0.00 0.00 92 1007.7
20260506121534 78 142 4.3 9.6 0.00 0.00 0.00 92 1007.7
20260506121020 78 140 6.1 10.4 0.00 0.00 0.00 92 1007.7
20260506120517 78 126 7.0 10.4 0.00 0.00 0.00 92 1007.6
20260506120105 78 132 6.1 11.3 0.00 0.00 0.00 92 1007.6
20260506115517 78 152 7.0 11.3 0.00 0.00 0.00 92 1007.6
20260506115019 78 107 7.0 11.3 0.00 0.00 0.00 92 1007.5
20260506114536 78 130 7.0 10.4 0.00 0.00 0.00 92 1007.5
20260506114020 78 144 7.0 9.6 0.00 0.00 0.00 92 1007.5
20260506113521 78 126 5.2 8.7 0.00 0.00 0.00 92 1007.4
20260506113036 78 153 6.1 8.7 0.00 0.00 0.00 92 1007.5
20260506112520 77 102 4.3 8.7 0.00 0.00 0.00 92 1007.5
20260506112020 78 136 4.3 7.8 0.00 0.00 0.00 92 1007.6
20260506111534 78 165 4.3 7.8 0.00 0.00 0.00 92 1007.5
20260506111019 78 85 4.3 7.8 0.00 0.00 0.00 92 1007.4
20260506110519 78 117 5.2 7.8 0.00 0.00 0.00 92 1007.5
20260506110035 78 124 3.5 8.7 0.00 0.00 0.00 92 1007.5
20260506105519 77 125 2.6 8.7 0.00 0.00 0.00 92 1007.5
20260506105020 77 129 6.1 8.7 0.00 0.00 0.00 92 1007.3
20260506104542 77 111 6.1 8.7 0.00 0.00 0.00 92 1007.2
20260506104017 77 119 4.3 7.8 0.00 0.00 0.00 92 1007.3
20260506103519 77 134 4.3 7.8 0.00 0.00 0.00 92 1007.4
20260506103038 77 143 4.3 7.8 0.00 0.00 0.00 92 1007.3
20260506102519 77 130 3.5 8.7 0.00 0.00 0.00 92 1007.1
20260506102019 77 136 5.2 8.7 0.00 0.00 0.00 92 1007.2
20260506101536 77 136 4.3 8.7 0.00 0.00 0.00 92 1007.2
20260506101020 77 157 4.3 8.7 0.00 0.00 0.00 92 1007.2
20260506100519 77 136 3.5 8.7 0.00 0.00 0.00 92 1007.3
20260506100035 77 132 4.3 8.7 0.00 0.00 0.00 92 1007.2
20260506095520 77 146 3.5 10.4 0.00 0.00 0.00 92 1007.2
20260506095018 77 136 7.0 10.4 0.00 0.00 0.00 92 1007.1
20260506094540 77 140 4.3 9.6 0.00 0.00 0.00 91 1007.3
20260506094018 77 118 6.1 10.4 0.00 0.00 0.00 91 1007.2
20260506093519 77 170 5.2 10.4 0.00 0.00 0.00 91 1007.1
20260506093044 77 161 5.2 11.3 0.00 0.00 0.00 91 1006.9
20260506092520 77 135 7.0 11.3 0.00 0.00 0.00 91 1007.0
20260506092020 77 146 7.8 11.3 0.00 0.00 0.00 91 1007.0
20260506091540 77 165 6.1 11.3 0.00 0.00 0.00 91 1006.9
20260506091019 77 142 7.0 12.2 0.00 0.00 0.00 91 1006.8
20260506090519 77 157 7.0 12.2 0.00 0.00 0.00 91 1006.7
20260506090042 77 147 7.0 13.9 0.00 0.00 0.00 91 1006.8
20260506085521 77 134 9.6 14.8 0.00 0.00 0.00 91 1006.8
20260506085021 77 134 6.1 14.8 0.00 0.00 0.00 91 1006.7
20260506084536 77 146 8.7 14.8 0.00 0.00 0.00 91 1006.7
20260506084020 77 138 7.8 13.0 0.00 0.00 0.00 91 1006.7
20260506083523 77 155 8.7 15.6 0.00 0.00 0.00 90 1006.8
20260506083042 77 136 8.7 16.5 0.00 0.00 0.00 90 1006.7
20260506082517 77 146 10.4 17.4 0.00 0.00 0.00 90 1006.6
20260506082020 78 159 11.3 17.4 0.00 0.00 0.00 90 1006.6
20260506081536 78 127 9.6 19.1 0.00 0.00 0.00 90 1006.8
20260506081019 78 140 10.4 19.1 0.00 0.00 0.00 90 1006.8
20260506080519 78 124 10.4 16.5 0.00 0.00 0.00 90 1006.8
20260506073520 78 142 11.3 17.4 0.00 0.00 0.00 89 1006.9
20260506073036 78 153 10.4 17.4 0.00 0.00 0.00 89 1007.2
20260506072520 78 159 9.6 17.4 0.00 0.00 0.00 89 1007.4
20260506072021 78 141 9.6 14.8 0.00 0.00 0.00 88 1007.4
20260506071547 78 155 9.6 17.4 0.00 0.00 0.00 88 1007.4
20260506071019 78 152 13.0 17.4 0.00 0.00 0.00 88 1007.6
20260506070519 78 161 10.4 18.2 0.00 0.00 0.00 88 1007.6
20260506062517 78 148 8.7 16.5 0.00 0.00 0.00 90 1008.1
20260506062020 78 128 10.4 16.5 0.00 0.00 0.00 90 1008.0
20260506061539 78 157 7.8 16.5 0.00 0.00 0.00 90 1007.9
20260506061021 78 144 9.6 19.1 0.00 0.00 0.00 91 1008.0
20260506060517 78 198 12.2 19.1 0.00 0.00 0.00 91 1008.0
20260506051019 78 132 11.3 18.2 0.00 0.00 0.00 90 1008.2
20260506050520 78 148 10.4 17.4 0.00 0.00 0.00 90 1008.2
20260506045018 78 148 8.7 15.6 0.00 0.00 0.00 90 1008.4
20260506044550 78 160 8.7 15.6 0.00 0.00 0.00 90 1008.5
20260506044019 78 140 9.6 17.4 0.00 0.00 0.00 90 1008.3
20260506043520 78 153 8.7 17.4 0.00 0.00 0.00 90 1008.3
20260506043036 78 153 11.3 16.5 0.00 0.00 0.00 90 1008.3
20260506042520 78 141 10.4 16.5 0.00 0.00 0.00 90 1008.4
20260506042020 78 111 12.2 16.5 0.00 0.00 0.00 90 1008.3
20260506041540 78 134 11.3 20.0 0.00 0.00 0.00 90 1008.2
20260506041019 78 126 11.3 20.0 0.00 0.00 0.00 90 1008.1
20260506040519 78 132 10.4 18.2 0.00 0.00 0.00 90 1008.1
20260506040041 78 142 11.3 18.2 0.00 0.00 0.00 90 1008.1
20260506035519 78 146 8.7 16.5 0.00 0.00 0.00 90 1008.0
20260506035019 78 125 10.4 19.1 0.00 0.00 0.00 90 1008.0
20260506034539 78 128 11.3 19.1 0.00 0.00 0.00 90 1008.0
20260506034020 78 159 11.3 18.2 0.00 0.00 0.00 90 1008.0
20260506033519 78 121 8.7 17.4 0.00 0.00 0.00 90 1007.8
20260506033039 78 158 9.6 21.7 0.00 0.00 0.00 90 1007.6
20260506032519 78 145 11.3 21.7 0.00 0.00 0.00 90 1007.4
20260506032020 78 161 11.3 20.0 0.00 0.00 0.00 90 1007.5
20260506031553 78 147 11.3 18.2 0.00 0.00 0.00 90 1007.6
20260506031020 78 123 10.4 17.4 0.00 0.00 0.00 90 1007.6
20260506030519 78 149 10.4 18.2 0.00 0.00 0.00 90 1007.7
20260506030043 78 150 12.2 18.2 0.00 0.00 0.00 90 1007.6
20260506025523 78 147 12.2 18.2 0.00 0.00 0.00 91 1007.5
20260506025019 78 131 11.3 17.4 0.00 0.00 0.00 91 1007.4
20260506024538 78 128 11.3 17.4 0.00 0.00 0.00 90 1007.5
20260506024019 78 155 11.3 19.1 0.00 0.00 0.00 90 1007.6
20260506023519 78 139 10.4 19.1 0.00 0.00 0.00 90 1007.4
20260506023040 78 138 11.3 22.6 0.00 0.00 0.00 90 1007.3
20260506022519 78 126 11.3 22.6 0.00 0.00 0.00 90 1007.2
20260506022019 78 142 8.7 20.0 0.00 0.00 0.00 90 1007.2
20260506021540 78 128 11.3 19.1 0.00 0.00 0.00 90 1007.1
20260506021018 78 135 11.3 19.1 0.00 0.00 0.00 90 1007.1
20260506020520 78 149 12.2 20.0 0.00 0.00 0.00 90 1006.9
20260506020036 78 122 11.3 20.0 0.00 0.00 0.00 90 1006.8
20260506015523 78 130 11.3 20.0 0.00 0.00 0.00 90 1006.8